�N����,����,�~����,�C��,���x,�C��,����,���ϕ���,�ő�u�ԕ���,�ő厞����,���˗�,�I�_���x,�n�����x,�ő啗���N��,DTYPE
"18/09/15","00:10",0.0,21.1,96.8,1010.2,332.0,0.5,1.0,350.8,0.00,20.6,23.6,"00:08:48",1
"18/09/15","00:20",0.0,21.2,97.0,1010.0,296.2,0.5,0.8,350.8,0.00,20.7,23.5,"00:10:16",1
"18/09/15","00:30",0.0,21.1,96.9,1010.0,301.5,0.2,0.6,255.0,0.00,20.6,23.5,"00:22:00",1
"18/09/15","00:40",0.0,21.1,97.0,1009.7,290.1,0.2,0.5,318.4,0.00,20.6,23.4,"00:30:08",1
"18/09/15","00:50",0.0,21.1,97.0,1010.0,299.2,0.2,1.1,306.3,0.00,20.6,23.3,"00:40:32",1
"18/09/15","01:00",1.0,21.1,97.0,1010.0,254.2,0.2,0.6,269.0,0.00,20.6,23.2,"00:55:52",1
"18/09/15","01:10",0.4,21.1,97.0,1009.7,286.7,0.3,0.9,301.4,0.00,20.6,23.4,"01:08:00",1
"18/09/15","01:20",0.0,21.1,97.0,1009.5,287.7,0.3,0.6,294.2,0.00,20.6,23.5,"01:10:40",1
"18/09/15","01:30",0.0,21.1,97.1,1009.3,294.0,0.5,0.8,329.4,0.00,20.7,23.5,"01:21:12",1
"18/09/15","01:40",0.0,21.1,97.1,1009.7,283.4,0.5,1.3,314.0,0.00,20.7,23.4,"01:39:52",1
"18/09/15","01:50",0.0,21.1,97.1,1009.3,277.9,0.5,0.9,305.0,0.00,20.7,23.5,"01:42:48",1
"18/09/15","02:00",0.0,21.0,97.1,1009.5,294.1,0.3,0.8,308.5,0.00,20.6,23.3,"01:56:40",1
"18/09/15","02:10",0.0,21.0,97.2,1009.3,308.4,0.5,1.2,334.1,0.00,20.6,23.4,"02:03:36",1
"18/09/15","02:20",0.0,21.1,97.2,1009.3,305.7,0.5,1.0,321.8,0.00,20.7,23.5,"02:10:02",1
"18/09/15","02:30",0.0,21.0,97.2,1009.3,296.9,0.5,0.8,306.8,0.00,20.6,23.4,"02:20:08",1
"18/09/15","02:40",0.2,21.1,97.2,1009.3,341.9,0.5,1.1,343.9,0.00,20.7,23.3,"02:34:56",1
"18/09/15","02:50",0.0,21.1,97.2,1008.8,306.6,0.3,1.0,315.9,0.00,20.7,23.5,"02:48:16",1
"18/09/15","03:00",0.0,21.2,97.2,1009.3,284.9,0.2,0.8,286.9,0.00,20.8,23.3,"02:50:40",1
"18/09/15","03:10",0.0,21.2,97.3,1009.3,260.1,0.1,0.6,320.6,0.00,20.8,23.3,"03:00:48",1
"18/09/15","03:20",0.0,21.2,97.3,1009.3,300.8,0.1,0.5,320.1,0.00,20.8,23.4,"03:18:40",1
"18/09/15","03:30",0.0,21.2,97.3,1009.3,311.4,0.3,0.8,319.6,0.00,20.8,23.2,"03:26:32",1
"18/09/15","03:40",0.2,21.2,97.3,1009.3,322.1,0.5,0.8,331.8,0.00,20.8,23.2,"03:33:44",1
"18/09/15","03:50",0.2,21.2,97.3,1008.8,322.7,0.6,0.9,339.1,0.00,20.8,23.3,"03:46:16",1
"18/09/15","04:00",0.2,21.2,97.4,1009.0,317.7,0.7,1.1,337.1,0.00,20.8,23.4,"03:56:40",1
"18/09/15","04:10",0.8,21.1,97.4,1008.8,325.2,0.7,1.1,336.2,0.00,20.7,23.3,"04:06:16",1
"18/09/15","04:20",0.4,21.1,97.3,1009.0,312.0,0.1,0.8,333.5,0.00,20.7,23.2,"04:19:20",1
"18/09/15","04:30",0.2,21.1,97.4,1008.6,314.9,0.6,1.0,343.5,0.00,20.7,23.1,"04:29:52",1
"18/09/15","04:40",0.2,21.1,97.4,1008.8,293.8,0.7,1.1,336.2,0.00,20.7,23.2,"04:31:44",1
"18/09/15","04:50",0.0,21.1,97.4,1008.6,286.4,0.3,0.8,311.6,0.00,20.7,23.4,"04:48:40",1
"18/09/15","05:00",0.0,21.2,97.4,1008.6,328.1,0.5,1.0,328.6,0.00,20.8,23.2,"04:59:12",1
"18/09/15","05:10",0.0,21.2,97.4,1008.8,275.0,0.3,1.1,316.2,0.00,20.8,23.2,"05:00:16",1
"18/09/15","05:20",0.0,21.1,97.5,1008.8,310.8,0.3,0.8,266.9,0.00,20.7,23.4,"05:10:56",1
"18/09/15","05:30",0.0,21.2,97.5,1008.6,318.8,0.3,1.0,329.0,0.00,20.8,23.3,"05:29:28",1
"18/09/15","05:40",0.0,21.2,97.5,1008.8,336.6,0.6,1.0,351.5,0.00,20.8,23.3,"05:36:00",1
"18/09/15","05:50",0.0,21.2,97.5,1008.6,324.5,0.5,0.9,322.0,0.00,20.8,23.2,"05:43:12",1
"18/09/15","06:00",0.0,21.2,97.5,1008.3,325.4,0.1,0.4,296.2,0.00,20.8,23.1,"05:50:16",1
"18/09/15","06:10",0.0,21.3,97.5,1008.8,306.5,0.5,0.9,336.6,0.00,20.9,23.3,"06:02:24",1
"18/09/15","06:20",0.0,21.3,97.5,1009.0,252.1,0.2,0.8,331.8,0.00,20.9,23.5,"06:11:20",1
"18/09/15","06:30",0.0,21.3,97.6,1008.8,232.4,0.1,0.5,220.2,0.00,20.9,23.1,"06:29:44",1
"18/09/15","06:40",0.0,21.4,97.6,1008.8,196.9,0.1,0.5,202.3,0.00,21.0,23.1,"06:30:24",1
"18/09/15","06:50",0.0,21.4,97.6,1009.0,304.0,0.5,0.8,323.6,0.00,21.0,23.2,"06:44:00",1
"18/09/15","07:00",0.4,21.5,97.5,1009.0,314.8,0.6,1.1,315.0,0.00,21.1,23.2,"06:51:04",1
"18/09/15","07:10",0.6,21.4,97.5,1009.3,341.3,0.3,1.1,332.2,0.00,21.0,23.4,"07:02:48",1
"18/09/15","07:20",0.2,21.5,97.5,1008.8,289.8,0.2,0.6,329.8,0.01,21.1,23.2,"07:16:48",1
"18/09/15","07:30",0.0,21.5,97.6,1009.3,306.6,0.5,0.8,299.2,0.00,21.1,23.3,"07:25:44",1
"18/09/15","07:40",0.4,21.5,97.4,1009.3,304.9,0.2,0.5,337.5,0.00,21.1,23.3,"07:30:08",1
"18/09/15","07:50",0.2,21.5,97.5,1009.3,307.5,0.5,1.1,320.1,0.00,21.1,23.2,"07:48:08",1
"18/09/15","08:00",0.2,21.6,97.4,1009.0,324.2,0.6,1.0,332.7,0.01,21.2,23.2,"07:59:44",1
"18/09/15","08:10",0.0,21.6,97.3,1009.0,316.4,0.5,1.0,329.1,0.03,21.2,23.3,"08:02:08",1
"18/09/15","08:20",0.0,21.7,97.4,1009.3,249.0,0.1,0.5,252.6,0.03,21.3,23.2,"08:17:28",1
"18/09/15","08:30",0.0,21.8,97.5,1009.0,302.7,0.3,1.0,353.8,0.03,21.4,23.2,"08:25:36",1
"18/09/15","08:40",0.0,21.9,97.2,1008.8,310.1,0.3,0.9,336.6,0.03,21.5,23.3,"08:33:36",1
"18/09/15","08:50",0.0,21.9,97.2,1008.6,272.9,0.5,0.9,306.2,0.04,21.5,23.4,"08:42:40",1
"18/09/15","09:00",0.0,21.8,97.1,1008.8,307.7,0.2,0.6,277.6,0.02,21.4,23.5,"08:51:12",1
"18/09/15","09:10",0.2,22.0,97.3,1009.3,4.4,0.1,0.5,52.3,0.03,21.6,23.4,"09:01:28",1
"18/09/15","09:20",0.2,22.1,97.0,1009.0,141.8,0.3,0.8,134.2,0.06,21.6,23.4,"09:12:32",1
"18/09/15","09:30",0.0,21.9,96.7,1009.0,211.0,0.5,1.0,228.2,0.07,21.4,23.3,"09:24:08",1
"18/09/15","09:40",0.0,22.4,96.1,1009.3,293.4,0.2,0.6,307.5,0.07,21.8,23.5,"09:37:28",1
"18/09/15","09:50",0.0,22.3,96.5,1009.0,341.1,0.2,0.8,345.1,0.03,21.8,23.6,"09:48:24",1
"18/09/15","10:00",0.0,22.4,96.5,1009.0,358.3,0.5,0.9,341.4,0.09,21.9,23.7,"09:51:20",1
"18/09/15","10:10",0.0,22.7,96.0,1008.6,10.5,0.5,1.4,354.7,0.08,22.1,23.5,"10:07:12",1
"18/09/15","10:20",0.0,22.7,95.9,1008.6,334.6,0.8,1.2,335.7,0.08,22.1,23.7,"10:10:08",1
"18/09/15","10:30",0.0,22.9,95.7,1008.6,332.7,0.8,1.3,345.4,0.11,22.2,23.5,"10:26:08",1
"18/09/15","10:40",0.0,23.3,94.6,1008.6,348.5,0.6,1.7,333.7,0.10,22.4,23.8,"10:37:44",1
"18/09/15","10:50",0.0,22.9,93.1,1008.3,347.9,0.7,2.0,347.1,0.03,21.8,23.7,"10:44:24",1
"18/09/15","11:00",0.0,23.1,93.0,1008.6,318.4,1.0,1.3,321.5,0.02,21.9,23.7,"10:56:00",1
"18/09/15","11:10",0.0,23.2,92.8,1008.6,288.4,0.8,1.1,304.8,0.04,22.0,23.8,"11:07:12",1
"18/09/15","11:20",0.0,23.3,92.8,1008.3,295.6,1.0,2.0,310.3,0.03,22.1,23.8,"11:19:44",1
"18/09/15","11:30",0.0,23.2,92.5,1008.6,313.8,1.0,1.8,318.2,0.03,22.0,23.8,"11:22:00",1
"18/09/15","11:40",0.0,23.1,92.7,1008.6,321.0,1.1,1.6,329.6,0.02,21.9,24.0,"11:34:00",1
"18/09/15","11:50",0.0,23.3,93.0,1008.3,307.2,1.0,1.8,327.3,0.03,22.1,24.0,"11:42:48",1
"18/09/15","12:00",0.0,23.3,93.5,1008.1,301.0,1.0,1.7,305.7,0.04,22.2,23.9,"11:53:44",1
"18/09/15","12:10",0.0,23.3,92.8,1008.1,277.7,0.8,1.8,263.2,0.09,22.1,24.0,"12:08:08",1
"18/09/15","12:20",0.0,23.5,93.8,1007.8,280.5,0.8,1.4,314.4,0.10,22.5,23.7,"12:12:48",1
"18/09/15","12:30",0.0,23.7,93.0,1007.8,294.2,0.8,1.4,332.1,0.06,22.5,24.0,"12:23:04",1
"18/09/15","12:40",0.0,23.7,93.1,1007.6,289.9,0.8,1.2,324.0,0.04,22.6,24.1,"12:39:20",1
"18/09/15","12:50",0.2,23.6,92.9,1007.6,283.4,0.6,1.0,267.4,0.06,22.4,24.2,"12:45:28",1
"18/09/15","13:00",0.0,23.8,92.9,1007.6,273.3,0.7,1.6,326.8,0.16,22.6,24.0,"12:56:56",1
"18/09/15","13:10",0.0,24.0,93.4,1007.6,300.3,0.7,1.0,333.5,0.08,22.9,24.2,"13:02:16",1
"18/09/15","13:20",0.0,24.3,92.6,1007.1,311.9,0.6,1.4,337.7,0.14,23.1,24.1,"13:11:44",1
"18/09/15","13:30",0.0,24.6,92.6,1006.9,212.4,0.3,0.9,125.4,0.12,23.4,24.3,"13:26:24",1
"18/09/15","13:40",0.0,25.0,91.2,1006.4,287.3,0.3,0.9,145.2,0.26,23.5,24.2,"13:30:08",1
"18/09/15","13:50",0.0,25.2,89.6,1006.9,1.6,0.6,1.6,342.9,0.23,23.4,24.5,"13:47:20",1
"18/09/15","14:00",0.0,25.4,90.1,1006.4,309.6,0.7,1.6,347.2,0.14,23.7,24.5,"13:59:36",1
"18/09/15","14:10",0.0,25.5,89.3,1006.7,327.1,0.8,1.9,342.7,0.14,23.6,24.6,"14:08:32",1
"18/09/15","14:20",0.0,25.7,88.7,1006.9,322.2,1.0,2.0,341.6,0.08,23.7,24.5,"14:12:24",1
"18/09/15","14:30",0.0,25.7,88.1,1006.2,31.6,0.6,2.0,305.1,0.07,23.6,24.7,"14:20:08",1
"18/09/15","14:40",0.0,25.7,88.7,1006.4,275.5,0.3,0.6,119.2,0.04,23.7,24.7,"14:30:56",1
"18/09/15","14:50",0.0,25.6,88.0,1006.4,251.8,0.3,1.0,347.9,0.03,23.5,24.7,"14:47:44",1
"18/09/15","15:00",0.0,25.8,88.4,1006.4,308.0,0.8,1.3,317.2,0.03,23.8,24.8,"14:52:32",1
"18/09/15","15:10",0.0,25.8,88.0,1006.2,304.6,0.8,1.2,319.4,0.07,23.7,24.9,"15:04:00",1
"18/09/15","15:20",0.0,25.9,88.1,1006.4,302.7,0.8,1.3,326.8,0.04,23.8,24.9,"15:14:16",1
"18/09/15","15:30",0.0,26.0,88.8,1006.2,266.3,0.7,1.3,237.9,0.06,24.0,24.9,"15:24:00",1
"18/09/15","15:40",0.0,25.9,88.0,1006.2,318.2,1.2,1.9,331.4,0.09,23.8,24.7,"15:31:28",1
"18/09/15","15:50",0.0,26.0,89.0,1006.2,300.5,0.8,1.6,328.1,0.10,24.1,24.7,"15:41:52",1
"18/09/15","16:00",0.0,26.3,87.4,1006.2,305.1,0.3,1.0,317.8,0.07,24.1,25.1,"15:51:36",1
"18/09/15","16:10",0.0,26.4,86.6,1006.4,321.6,0.6,1.6,337.0,0.07,24.0,24.9,"16:06:00",1
"18/09/15","16:20",0.0,26.4,86.7,1006.2,308.2,0.8,1.3,329.1,0.05,24.0,24.9,"16:11:04",1
"18/09/15","16:30",0.0,26.5,86.2,1006.0,288.1,0.5,0.9,270.9,0.04,24.0,25.0,"16:20:02",1
"18/09/15","16:40",0.0,26.4,86.4,1006.2,275.4,0.5,1.0,253.4,0.05,24.0,25.1,"16:38:56",1
"18/09/15","16:50",0.0,26.5,87.0,1006.0,283.9,0.6,1.1,302.9,0.03,24.2,25.1,"16:42:24",1
"18/09/15","17:00",0.0,26.4,87.4,1005.7,276.4,0.5,0.9,287.5,0.03,24.2,25.2,"16:50:16",1
"18/09/15","17:10",0.0,26.3,87.7,1005.7,292.8,0.8,1.2,242.0,0.03,24.1,24.7,"17:00:56",1
"18/09/15","17:20",0.0,26.2,87.5,1006.2,308.2,0.8,1.3,330.7,0.01,24.0,25.1,"17:15:36",1
"18/09/15","17:30",0.0,26.3,88.2,1006.2,321.6,0.8,1.3,329.4,0.00,24.2,25.0,"17:26:24",1
"18/09/15","17:40",0.0,26.3,89.1,1006.0,323.3,0.5,0.9,321.2,0.01,24.4,24.9,"17:30:08",1
"18/09/15","17:50",0.0,26.1,89.3,1005.7,279.7,0.3,0.8,303.3,0.01,24.2,25.0,"17:44:08",1
"18/09/15","18:00",0.0,26.0,90.0,1006.0,302.4,0.7,1.1,316.1,0.00,24.3,24.9,"17:58:00",1
"18/09/15","18:10",0.0,25.8,90.3,1006.4,313.3,0.8,1.2,322.4,0.00,24.1,24.9,"18:09:52",1
"18/09/15","18:20",0.0,25.4,91.0,1006.2,314.5,1.0,1.4,313.2,0.00,23.9,24.8,"18:18:48",1
"18/09/15","18:30",0.0,25.2,91.8,1006.7,295.4,0.6,1.4,316.6,0.00,23.8,25.2,"18:20:08",1
"18/09/15","18:40",0.0,24.8,91.9,1006.7,290.9,0.6,1.3,261.2,0.00,23.4,24.8,"18:35:04",1
"18/09/15","18:50",0.0,24.7,92.1,1006.7,301.4,0.8,1.3,342.2,0.00,23.4,24.7,"18:44:40",1
"18/09/15","19:00",0.0,24.5,92.4,1006.7,306.8,0.7,1.1,316.7,0.00,23.2,25.0,"18:54:48",1
"18/09/15","19:10",0.0,24.5,92.5,1006.9,313.8,0.5,1.2,340.1,0.00,23.2,24.9,"19:01:04",1
"18/09/15","19:20",0.0,24.6,92.5,1007.1,355.6,0.8,1.4,0.0,0.00,23.3,24.9,"19:16:40",1
"18/09/15","19:30",0.0,24.4,92.8,1007.1,333.1,0.7,1.3,315.0,0.00,23.2,24.7,"19:24:56",1
"18/09/15","19:40",0.0,24.3,93.0,1007.1,299.7,0.7,1.3,324.9,0.00,23.1,24.8,"19:30:02",1
"18/09/15","19:50",0.0,24.2,93.2,1006.7,296.1,0.6,1.1,261.7,0.00,23.1,24.6,"19:43:52",1
"18/09/15","20:00",0.0,24.1,93.3,1007.4,339.5,0.7,1.6,344.0,0.00,23.0,24.7,"19:59:12",1
"18/09/15","20:10",0.0,24.1,93.5,1007.4,328.6,1.0,1.6,324.0,0.00,23.0,24.5,"20:08:32",1
"18/09/15","20:20",0.0,24.0,93.8,1007.6,301.6,0.6,1.1,318.8,0.00,23.0,24.7,"20:14:00",1
"18/09/15","20:30",0.0,23.9,94.0,1007.6,337.6,0.6,1.3,334.1,0.00,22.9,24.5,"20:26:00",1
"18/09/15","20:40",0.0,23.9,94.1,1007.6,317.1,1.0,1.4,336.2,0.00,22.9,24.6,"20:30:32",1
"18/09/15","20:50",0.0,23.8,94.3,1007.6,324.9,0.8,1.1,335.6,0.00,22.9,24.6,"20:46:56",1
"18/09/15","21:00",0.0,23.8,94.3,1007.4,307.5,1.0,1.7,318.8,0.00,22.9,24.5,"20:55:04",1
"18/09/15","21:10",0.0,23.7,94.5,1007.6,290.8,0.7,1.2,327.2,0.00,22.8,24.6,"21:00:08",1
"18/09/15","21:20",0.0,23.7,94.6,1007.4,300.0,0.6,1.6,318.9,0.00,22.8,24.3,"21:12:40",1
"18/09/15","21:30",0.0,23.7,94.7,1007.6,320.8,1.0,1.8,337.6,0.00,22.8,24.5,"21:23:28",1
"18/09/15","21:40",0.0,23.7,94.8,1007.6,285.0,0.6,1.2,269.9,0.00,22.9,24.5,"21:37:44",1
"18/09/15","21:50",0.0,23.7,94.8,1007.8,302.7,0.8,1.4,334.7,0.00,22.9,24.3,"21:49:12",1
"18/09/15","22:00",0.0,23.7,94.9,1007.4,326.2,1.1,2.1,343.0,0.00,22.9,24.5,"21:50:40",1
"18/09/15","22:10",0.0,23.7,94.9,1007.6,305.3,0.7,1.8,343.8,0.00,22.9,24.2,"22:01:36",1
"18/09/15","22:20",0.0,23.7,95.1,1007.1,293.2,0.8,1.2,321.5,0.00,22.9,24.6,"22:16:32",1
"18/09/15","22:30",0.0,23.7,95.1,1007.4,276.5,0.7,0.9,303.4,0.00,22.9,24.3,"22:20:16",1
"18/09/15","22:40",0.0,23.6,95.1,1007.1,273.4,0.7,1.0,309.7,0.00,22.8,24.3,"22:38:24",1
"18/09/15","22:50",0.0,23.6,95.2,1007.4,311.3,0.7,1.0,300.4,0.00,22.8,24.2,"22:42:40",1
"18/09/15","23:00",0.0,23.7,95.3,1007.4,313.8,1.0,2.0,335.5,0.00,22.9,24.2,"22:56:32",1
"18/09/15","23:10",0.0,23.7,95.4,1007.1,331.0,1.0,1.7,323.2,0.00,23.0,24.4,"23:05:04",1
"18/09/15","23:20",0.0,23.7,95.4,1007.1,312.2,1.0,1.6,334.5,0.00,23.0,24.2,"23:12:48",1
"18/09/15","23:30",0.0,23.6,95.5,1006.9,288.0,0.6,0.9,261.3,0.00,22.9,24.3,"23:21:52",1
"18/09/15","23:40",0.0,23.6,95.6,1007.1,290.6,0.8,1.4,321.0,0.00,22.9,24.3,"23:39:52",1
"18/09/15","23:50",0.0,23.6,95.6,1006.9,324.6,0.8,1.2,337.0,0.00,22.9,24.2,"23:41:44",1
"18/09/15","24:00",0.0,23.5,95.7,1006.9,301.0,0.7,1.3,327.1,0.00,22.8,24.2,"23:52:40",1
